Preview of NWS' New Version of Forecast
This preview is not operational and should not be used for support decisions.

Regional Weather Roundup (RWR)

Issued by Gray - Portland, ME (GYX)

                            
000
ASUS41 KGYX 260610
RWRGYX
WEATHER ROUNDUP FOR MAINE AND NEW HAMPSHIRE
NATIONAL WEATHER SERVICE GRAY ME
200 AM EDT TUE MAR 26 2019

MEZ002-005-006-010-012-015-018-020-021-024-026-027-029-260700-
MAINE
  
CITY           SKY/WX    TMP DP  RH WIND       PRES   REMARKS
PORTLAND       FAIR      25  10  53 CALM      30.14R                  
6HR MIN TEMP:  24; 6HR MAX TEMP:  35;                                

SANFORD        FAIR      16  14  92 CALM      30.14R                  
BAR HARBOR     FAIR      24   7  48 CALM      30.12R                  
WISCASSET      FAIR      21  13  71 CALM      30.14S                  
6HR MIN TEMP:  20; 6HR MAX TEMP:  32;                                

ROCKLAND       FAIR      21   9  59 CALM      30.13R                  
FRYEBURG       FAIR      22   2  42 W7        30.12R                  
6HR MIN TEMP:  17; 6HR MAX TEMP:  29;                                

LEWISTONAUBURN FAIR      19  14  81 CALM      30.13R                  
AUGUSTA        FAIR      27  -3  27 NW5       30.12R                  
6HR MIN TEMP:  26; 6HR MAX TEMP:  32;                                

WATERVILLE     FAIR      23   3  42 W5        30.08S                  
BANGOR         FAIR      20   7  57 CALM      30.10S                  
6HR MIN TEMP:  19; 6HR MAX TEMP:  31;                                

GREENVILLE       N/A     16  -3  43 CALM      29.97R                  
6HR MIN TEMP:  15; 6HR MAX TEMP:  21;                                

MILLINOCKET    FAIR      11   5  77 CALM      30.06S                  
6HR MIN TEMP:  11; 6HR MAX TEMP:  26;                                

HOULTON        FAIR      15   3  59 SW3       30.01S                  
6HR MIN TEMP:  13; 6HR MAX TEMP:  24;                                

PRESQUE ISLE   FAIR      13   3  64 S5        29.99F                  
6HR MIN TEMP:  13; 6HR MAX TEMP:  24;                                

FRENCHVILLE    CLOUDY    17  11  77 SW8       29.92S                  
6HR MIN TEMP:  14; 6HR MAX TEMP:  22; 6HR PCP: TRACE;                

CARIBOU        FAIR      14   2  58 SW7       29.96F                  
6HR MIN TEMP:  14; 6HR MAX TEMP:  23;                                

$$

NHZ002-005-008-009-011-012-014-260700-
NEW HAMPSHIRE
  
CITY           SKY/WX    TMP DP  RH WIND       PRES   REMARKS
PORTSMOUTH     CLEAR     27   9  46 NW3       30.14R                  
ROCHESTER      FAIR      24  13  62 S3        30.13R                  
6HR MIN TEMP:  22; 6HR MAX TEMP:  35;                                

NASHUA         FAIR      24  16  71 W6        30.16R                  
MANCHESTER     FAIR      28  13  53 CALM      30.14R                  
6HR MIN TEMP:  27; 6HR MAX TEMP:  41;                                

CONCORD        FAIR      21  12  68 CALM      30.15R                  
6HR MIN TEMP:  21; 6HR MAX TEMP:  35;                                

LACONIA        FAIR      21  11  65 W3        30.13R                  
PLYMOUTH       FAIR      16  13  88 CALM      30.14R                  
BERLIN         FAIR       6   0  76 CALM      30.07R                  
6HR MIN TEMP:   4; 6HR MAX TEMP:  28;                                

WHITEFIELD     FAIR      10   3  73 CALM      30.09R                  
6HR MIN TEMP:   9; 6HR MAX TEMP:  28;                                

JAFFREY        FAIR      28   8  43 CALM      30.11R                  
6HR MIN TEMP:  24; 6HR MAX TEMP:  30;                                

KEENE          FAIR      21  17  84 CALM      30.16R                  
LEBANON        FAIR      20  10  65 CALM      30.14R                  
6HR MIN TEMP:  19; 6HR MAX TEMP:  30;                                

MT WASHINGTON  PTCLDY     0  -6  78 W56G69      N/A  WCI -33          
6HR MIN TEMP:   0; 6HR MAX TEMP:   1;                                

$$

VTZ005-007-008-260700-
VERMONT
  
CITY           SKY/WX    TMP DP  RH WIND       PRES   REMARKS
ST JOHNSBURY     N/A     13   6  74 MISG      30.12R                  
MONTPELIER     FAIR      18   5  57 NW3       30.14R                  
BURLINGTON     FAIR      28   8  43 W7        30.16R                  
$$

MAZ007-012-024-CTZ003-RIZ002-NYZ038-NYZ072-260700-
SOUTHERN NEW ENGLAND AND NY
  
CITY           SKY/WX    TMP DP  RH WIND       PRES   REMARKS
BOSTON         FAIR      32  24  72 N7        30.13R                  
WORCESTER      FAIR      29   7  39 NW10      30.09R WCI  20          
NANTUCKET      CLOUDY    37  30  75 E5        30.10R                  
PROVIDENCE     FAIR      34  11  38 N8        30.12R                  
HARTFORD       FAIR      33   1  25 N8        30.14R                  
ALBANY         FAIR      26   6  42 CALM      30.21R                  
NEW YORK CITY  FAIR      40   7  25 N12       30.12S                  
$$

ANZ081-ANZ082-ANZ150-NHZ014-MEZ023>029-260700-
COASTAL MARINE OBSERVATIONS
  
STATION/POSITION TIME  TEMP    WIND        PRES    WAVE
                       AIR SEA DIR/SP/G            HT/PER
                 (UTC) (F)     (DEG/KT/KT) (MB)    (FT/S)
MOUNT DESERT ROC 0600   32     310/ 14/ 17 1019.9R
MATINICUS ROCK   0500   32     340/ 17/ 18 1019.3R
ISLE OF SHOALS   0500   37     340/ 10/ 11 1019.5R
CASHES LEDGE BUO 0550   34 39              1020.0R   4/ 4
$$

.............KEY..............
   WCI - WIND CHILL
   TC  - TEMPERATURE IN CELSIUS
   VSB - VISIBILITY IN MILES
   HX  - HEAT INDEX
   FAIR- INDICATES FEW OR NO CLOUDS BELOW 12,000 FT, WITH NO 
         SIGNIFICANT WEATHER AND/OR OBSTRUCTIONS TO VISIBILITY.